Date,TemperatureHighF,TemperatureAvgF,TemperatureLowF,DewpointHighF,DewpointAvgF,DewpointLowF,HumidityHigh,HumidityAvg,HumidityLow,PressureMaxIn,PressureMinIn,WindSpeedMaxMPH,WindSpeedAvgMPH,GustSpeedMaxMPH,PrecipitationSumIn
2013-12-1,50.6,39.6,31.6,9.8,3.4,-1.2,30,22,19,29.09,28.91,8,2,12,0.00
2013-12-2,42.8,36.2,30.0,8.0,5.0,1.9,31,27,20,28.91,28.73,7,3,10,0.00
2013-12-3,50.9,43.3,35.3,18.1,13.2,7.8,32,29,24,28.76,28.70,7,2,9,0.00
2013-12-4,60.6,52.0,38.5,26.3,20.3,9.7,31,29,25,28.76,28.61,7,3,12,0.00
2013-12-5,59.4,38.8,25.3,23.8,6.6,-5.2,32,26,22,29.15,28.67,9,6,16,0.00
2013-12-6,29.3,26.3,24.1,-1.9,-5.8,-18.2,29,24,23,29.32,29.12,7,3,9,0.00
2013-12-7,29.3,20.7,11.7,-4.1,-9.5,-14.5,31,25,23,29.50,29.32,7,2,10,0.00
2013-12-8,29.3,23.6,18.3,2.4,-6.0,-11.7,32,26,23,29.50,28.88,10,5,16,0.00
2013-12-9,29.7,25.1,18.5,3.4,-4.5,-11.5,32,27,23,29.12,28.85,10,6,17,0.00
2013-12-10,28.5,19.1,7.5,-4.8,-10.9,-19.6,27,25,23,29.18,28.94,16,6,24,0.00
2013-12-11,29.5,18.9,8.6,-3.8,-11.0,-18.6,27,25,23,29.35,29.18,8,3,13,0.00
2013-12-12,24.6,12.6,0.3,-7.1,-15.9,-26.0,27,26,24,29.38,29.15,12,5,17,0.00
2013-12-13,39.0,22.8,14.9,2.3,-8.4,-13.9,26,24,21,29.15,29.03,6,3,9,0.00
2013-12-14,35.2,30.2,22.8,7.6,2.9,-4.4,32,31,29,29.00,28.67,5,2,6,0.00
2013-12-15,26.1,19.9,14.4,0.2,-8.1,-14.3,32,28,25,29.00,28.82,12,5,20,0.00
2013-12-16,25.5,19.3,13.8,0.4,-9.3,-14.5,33,27,24,29.03,28.88,8,2,12,0.00
2013-12-17,28.6,24.0,20.5,0.7,-3.2,-7.9,34,30,23,28.97,28.88,9,6,14,0.00
2013-12-18,33.6,25.1,13.8,-0.3,-6.5,-14.5,29,24,23,29.09,28.82,8,5,17,0.00
2013-12-19,48.6,40.8,33.6,10.9,4.5,-1.1,25,22,19,28.88,28.73,10,4,17,0.00
2013-12-20,56.3,50.0,44.4,29.0,19.8,8.9,35,30,24,28.73,28.58,7,3,13,0.00
2013-12-21,53.6,39.6,35.8,21.8,13.6,11.2,40,34,27,28.67,28.32,13,4,17,0.00
2013-12-22,42.8,37.7,32.0,29.0,13.5,4.0,58,38,28,28.88,28.23,14,8,20,0.00
2013-12-23,31.8,25.7,13.3,4.6,-4.3,-14.5,31,26,23,29.24,28.88,9,6,17,0.00
2013-12-24,19.9,11.8,4.8,-8.7,-16.0,-21.9,31,27,25,29.35,29.24,8,4,13,0.00
2013-12-25,27.9,23.6,16.9,-1.1,-7.2,-11.4,31,25,23,29.26,28.97,9,4,13,0.00
2013-12-26,32.9,26.5,20.7,4.7,-4.4,-9.7,34,26,23,29.15,28.94,10,6,19,0.00
2013-12-27,47.5,36.8,28.3,7.3,1.7,-3.7,28,22,19,29.18,29.00,8,5,15,0.00
2013-12-28,53.1,41.4,34.5,10.6,4.9,2.0,27,22,18,29.00,28.73,9,5,15,0.00
2013-12-29,43.7,35.5,26.1,9.0,2.2,-2.7,34,24,20,28.82,28.58,9,5,15,0.00
2013-12-30,27.1,21.5,17.0,0.2,-8.6,-12.2,32,25,23,29.03,28.82,8,5,12,0.00
2013-12-31,26.6,19.6,14.2,-5.4,-10.1,-14.5,31,26,24,29.12,28.88,10,5,17,0.00